Pittsfield, MA

12:40 PM EDT on October 17, 2019 (GMT -0400)
Pittsfield Municipal

Weather History for KPSF - August, 2019

Change the Weather History Date:

Friday, August 16, 2019

  Actual Average Record
Temperature  
Mean Temperature 70 °F 67 °F  
Max Temperature 82 °F 78 °F 92 °F (1938)
Min Temperature 58 °F 56 °F 41 °F (1927)
Degree Days  
Heating Degree Days 0 1  
Month to date heating degree days 2 16  
Since 1 June heating degree days 69 148  
Since 1 July heating degree days 2 47  
Cooling Degree Days 5 3  
Month to date cooling degree days 61 60  
Year to date cooling degree days 337 237  
Since 1 June cooling degree days 331 224  
Growing Degree Days 20 (Base 50)    
Moisture  
Dew Point 60 °F    
Average Humidity 72    
Maximum Humidity 97    
Minimum Humidity 47    
Precipitation  
Precipitation 0.06 in 0.13 in 0.90 in (1952)
Month to date precipitation 0.77 2.18  
Year to date precipitation 26.91 27.87  
Sea Level Pressure  
Sea Level Pressure 30.00 in    
Wind  
Wind Speed 4 mph (South)    
Max Wind Speed 12 mph    
Max Gust Speed 16 mph    
Visibility 6 miles    
Events Fog , Rain    
T = Trace of Precipitation, MM = Missing Value Source: NWS Daily Summary

Daily Weather History Graph

Daily Weather History Graph

Search for Another Location

Airport or City:

Astronomy

Aug. 16, 2019 Rise Set
Actual Time 6:00 AM EDT 7:53 PM EDT
Civil Twilight 5:30 AM EDT 8:23 PM EDT
Nautical Twilight 4:53 AM EDT 9:00 PM EDT
Astronomical Twilight 4:13 AM EDT 9:39 PM EDT
Moon 8:50 PM EDT (8/16) 6:50 AM EDT (8/16)
Length of Visible Light 14h 52m
Length of Day
13h 52m
Full, 99% of the Moon is Illuminated
Aug 16
Full
Aug 23
Last Quarter
Aug 30
New
Sep 5
First Quarter
Sep 14
Full

Hourly Weather History & Observations

Time (EDT) Temp. Heat Index Dew Point Humidity Pressure Visibility Wind Dir Wind Speed Gust Speed Precip Events Conditions
12:54 AM 64.0 °F - 60.1 °F 87% 30.03 in 10.0 mi SSW 3.5 mph - 0.00 in Rain Light Rain
1:54 AM 62.1 °F - 60.1 °F 93% 29.97 in 10.0 mi SE 5.8 mph - 0.06 in Rain Light Rain
2:17 AM 62.1 °F - 60.1 °F 93% 30.05 in 10.0 mi WNW 3.5 mph - 0.01 in   Mostly Cloudy
2:54 AM 62.1 °F - 59.0 °F 90% 29.96 in 10.0 mi Calm Calm - 0.01 in   Scattered Clouds
3:37 AM 62.1 °F - 60.1 °F 93% 30.03 in 4.0 mi Calm Calm - N/A   Mostly Cloudy
3:46 AM 60.1 °F - 57.9 °F 93% 30.03 in 2.5 mi Calm Calm - N/A   Scattered Clouds
3:54 AM 60.1 °F - 57.9 °F 93% 29.96 in 1.0 mi Calm Calm - N/A   Mist
4:09 AM 60.1 °F - 57.9 °F 93% 30.04 in 0.8 mi Calm Calm - N/A   Mist
4:43 AM 60.1 °F - 57.9 °F 93% 30.03 in 0.5 mi Calm Calm - N/A Fog Fog
4:54 AM 59.0 °F - 57.9 °F 96% 29.96 in 0.2 mi Calm Calm - N/A Fog Fog
5:22 AM 60.1 °F - 59.0 °F 96% 30.04 in 0.2 mi Calm Calm - N/A Fog Fog
5:33 AM 60.1 °F - 59.0 °F 96% 30.04 in 0.8 mi Calm Calm - N/A   Mist
5:43 AM 60.1 °F - 57.9 °F 93% 30.05 in 0.2 mi Calm Calm - N/A Fog Fog
5:54 AM 60.1 °F - 59.0 °F 96% 29.98 in 0.2 mi Calm Calm - N/A Fog Fog
6:54 AM 60.1 °F - 59.0 °F 96% 30.00 in 0.2 mi Calm Calm - N/A Fog Fog
7:08 AM 60.1 °F - 57.9 °F 93% 30.06 in 1.0 mi Calm Calm - N/A   Mist
7:17 AM 61.0 °F - 59.0 °F 93% 30.06 in 0.2 mi Calm Calm - N/A Fog Fog
7:54 AM 61.0 °F - 59.0 °F 93% 30.01 in 0.5 mi Calm Calm - N/A Fog Fog
8:03 AM 61.0 °F - 59.0 °F 93% 30.07 in 2.0 mi NE 3.5 mph - N/A   Overcast
8:22 AM 62.1 °F - 61.0 °F 96% 30.07 in 6.0 mi NE 3.5 mph - N/A   Overcast
8:39 AM 62.1 °F - 60.1 °F 93% 30.06 in 10.0 mi ENE 3.5 mph - N/A   Mostly Cloudy
8:54 AM 63.0 °F - 61.0 °F 93% 30.00 in 9.0 mi ENE 3.5 mph - N/A   Overcast
9:54 AM 66.9 °F - 61.0 °F 81% 30.01 in 10.0 mi Calm Calm - N/A   Overcast
10:54 AM 72.0 °F - 61.0 °F 68% 29.99 in 10.0 mi East 3.5 mph - N/A   Scattered Clouds
11:54 AM 75.9 °F - 61.0 °F 60% 29.98 in 10.0 mi SE 5.8 mph - N/A   Clear
12:54 PM 79.0 °F - 61.0 °F 54% 29.97 in 10.0 mi Variable 4.6 mph - N/A   Clear
1:54 PM 80.1 °F 80.9 °F 60.1 °F 50% 29.97 in 10.0 mi Variable 4.6 mph - N/A   Mostly Cloudy
2:54 PM 80.1 °F 81.1 °F 61.0 °F 52% 29.97 in 10.0 mi SSW 6.9 mph - N/A   Mostly Cloudy
3:54 PM 82.0 °F 82.4 °F 60.1 °F 47% 29.96 in 10.0 mi SW 9.2 mph - N/A   Partly Cloudy
4:54 PM 82.0 °F 82.4 °F 60.1 °F 47% 29.94 in 10.0 mi SSW 8.1 mph - N/A   Scattered Clouds
5:54 PM 80.1 °F 81.1 °F 61.0 °F 52% 29.94 in 10.0 mi South 9.2 mph - N/A   Partly Cloudy
6:54 PM 78.1 °F - 63.0 °F 60% 29.95 in 10.0 mi South 5.8 mph - N/A   Mostly Cloudy
7:54 PM 75.0 °F - 62.1 °F 64% 29.94 in 10.0 mi South 5.8 mph - N/A   Clear
8:54 PM 72.0 °F - 63.0 °F 73% 29.96 in 10.0 mi SSW 3.5 mph - N/A   Partly Cloudy
9:16 PM 72.0 °F - 63.0 °F 73% 30.04 in 10.0 mi SSW 3.5 mph - N/A   Mostly Cloudy
9:54 PM 72.0 °F - 63.0 °F 73% 29.98 in 10.0 mi South 5.8 mph - N/A   Overcast
10:24 PM 72.0 °F - 64.0 °F 76% 30.06 in 10.0 mi South 8.1 mph - N/A   Overcast
10:54 PM 70.0 °F - 64.0 °F 81% 29.98 in 10.0 mi SSE 8.1 mph - N/A   Mostly Cloudy
11:54 PM 70.0 °F - 64.0 °F 81% 29.96 in 10.0 mi Calm Calm - N/A   Mostly Cloudy